Location: ???? ?????????
(44.3677°N, 135.2344°E)
Time: 14:12:06
(UTC+00:00)

Cosmos 2233 Rocket - Pass Details

Date: 19 May 2025
Orbit: 953 x 989 km, 82.9° (Epoch: 19 June)

Event Time Altitude Azimuth Distance (km) Brightness Sun altitude
Rises 16:31:01 0° 349° (NNW) 3,663 7.9 -22.1°
Reaches altitude 10° 16:33:32 10° 347° (NNW) 2,717 7.0 -21.9°
Maximum altitude 16:39:41 66° 266° (W) 1,060 4.0 -21.4°
Enters shadow 16:41:57 40° 200° (SSW) 1,408 4.3 -21.3°
